Flag for Greenland Weather past 2 weeks in Qaanaaq, Greenland

Now
30 °F

Overcast.


Feels Like: 23 °F
Forecast: 14 / 21 °F
Wind: 7 mph from South

Location: Thule A. B.

Current Time: Sep 22, 2014 at 10:59:40 PM

Latest Report: Sep 22, 2014 at 9:58 PM


Visibility: N/A

Pressure: 29.66 "Hg

Humidity: 59%

Dew point: 18 °F

Location of QaanaaqLocation

Historic Weather in Qaanaaq — Graph

°F

Qaanaaq temperature yesterday

Maximum temperature yesterday: 32 °F (at 6:58 AM)
Minimum temperature yesterday: 26 °F (at 11:58 PM)
Average temperature yesterday: 30 °F

Past Weeks' High & Low Weather Summary

 TemperatureHumidityPressure
High41 °F (Sep 8, 4:58 PM)100% (Sep 19, 7:00 PM)29.99 "Hg (Sep 19, 7:00 PM)
Low24 °F (Sep 15, 6:58 AM)39% (Sep 8, 5:58 PM)29.21 "Hg (Sep 22, 4:58 AM)
Average32 °F77%29.57 "Hg
* Reported Sep 7 9:58 PM — Sep 22 9:58 PM, Qaanaaq, Weather by CustomWeather, © 2014

Note: Actual official high and low records may vary slightly from our data, if they occured in-between our weather recording intervals... More about our weather records

Advertising

Qaanaaq weather history for previous 24 hours

 ConditionsComfort  
Time TempWeatherWind HumidityBarometerVisibility
9:58 PM
Sep 22
30 °FOvercast.7 mph59%29.66 "HgN/A
8:58 PM29 °FOvercast.8 mph72%29.63 "HgN/A
7:58 PM30 °FOvercast.12 mph69%29.58 "HgN/A
6:58 PM30 °FPartly sunny.14 mph69%29.54 "HgN/A
5:58 PM30 °FBroken clouds.12 mph69%29.50 "HgN/A
4:58 PM30 °FScattered clouds.15 mph69%29.45 "HgN/A
3:58 PM30 °FPassing clouds.18 mph75%29.40 "HgN/A
2:58 PM30 °FPassing clouds.15 mph69%29.36 "HgN/A
1:58 PM30 °FSunny.7 mph69%29.33 "HgN/A
12:58 PM30 °FSunny.1 mph64%29.31 "HgN/A
11:58 AM30 °FSunny.8 mph69%29.28 "HgN/A
10:58 AM28 °FScattered clouds.9 mph74%29.26 "HgN/A
9:58 AM28 °FOvercast.10 mph69%29.24 "HgN/A
8:58 AM28 °FPassing clouds.13 mph64%29.23 "HgN/A
7:58 AM28 °FPassing clouds.16 mph69%29.21 "HgN/A
6:58 AM28 °FOvercast.18 mph69%29.21 "HgN/A
5:58 AM28 °FOvercast.17 mph69%29.21 "HgN/A
4:58 AM28 °FOvercast.16 mph69%29.21 "HgN/A
3:58 AM28 °FOvercast.9 mph69%29.23 "HgN/A
2:58 AM28 °FOvercast.18 mph69%29.25 "HgN/A
1:58 AM28 °FOvercast.20 mph69%29.27 "HgN/A
12:58 AM27 °FClear.16 mph74%29.30 "HgN/A
11:58 PM
Sep 21
26 °FClear.No wind84%29.33 "HgN/A
10:58 PM28 °FPassing clouds.5 mph74%29.36 "HgN/A
Weather by CustomWeather, © 2014

See weather overviewHow to use our weather pages